Location: Saluda
(35.2377°N, 82.3468°W)
Time: 23:34:18
(UTC+00:00)

Tiros 1 - Pass Details

Date: 07 October 2022
Orbit: 629 x 662 km, 48.4° (Epoch: 09 December)

Event Time Altitude Azimuth Distance (km) Brightness Sun altitude
Exits shadow 08:15:43 12° 85° (E) 1,919 10.2 -39.4°
Drops below altitude 10° 08:16:07 10° 88° (E) 2,047 10.3 -39.3°
Sets 08:18:39 0° 98° (E) 2,949 11.2 -38.8°
